Location: Les Chemineaux
(47.3024°N, 1.5104°E)
Time: 20:19:23
(UTC+00:00)

Cosmos 1934 Rocket - Pass Details

Date: 19 May 2025
Orbit: 938 x 997 km, 83.0° (Epoch: 21 June)

Event Time Altitude Azimuth Distance (km) Brightness Sun altitude
Rises 23:09:05 0° 348° (NNW) 3,670 8.5 -22.1°
Reaches altitude 10° 23:11:37 10° 345° (NNW) 2,728 7.5 -22.1°
Maximum altitude 23:17:45 61° 267° (W) 1,108 4.2 -22.3°
Enters shadow 23:20:04 38° 205° (SSW) 1,456 4.5 -22.4°
